Location: New Frontier Mobile Home Park
(32.8448°N, 116.9675°W)
Time: 22:44:51
(UTC+00:00)

SL-08 R/B - Pass Details

Date: 14 July 2020
Orbit: 675 x 738 km, 98.4° (Epoch: 05 August)

Event Time Altitude Azimuth Distance (km) Brightness Sun altitude
Exits shadow 11:16:09 30° 214° (SW) 1,228 4.0 -17.3°
Maximum altitude 11:17:51 42° 261° (W) 995 3.7 -17.0°
Drops below altitude 10° 11:22:24 10° 332° (NNW) 2,193 6.0 -16.3°
Sets 11:24:48 0° 339° (NNW) 3,127 6.9 -15.9°
